| time (UTC) | temp F | wind direction | speed MPH | gust MPH | rain 1hr in | rain 24hr in | rain mn in | humidity % | barometer mb |
| 20260902003945 | 66 | 83 | 9.0 | 21.0 | 0.00 | 1.28 | 0.00 | 93 | 1005.3 |
| 20260902003045 | 66 | 77 | 8.0 | 20.0 | 0.00 | 1.28 | 0.00 | 93 | 1005.4 |
| 20260902001245 | 67 | 87 | 10.0 | 18.0 | 0.00 | 1.28 | 0.00 | 93 | 1005.4 |
| 20260902000346 | 67 | 86 | 8.0 | 19.0 | 0.00 | 1.28 | 0.00 | 93 | 1005.3 |
| 20260901235445 | 68 | 118 | 5.0 | 12.0 | 0.00 | 1.28 | 1.28 | 94 | 1004.9 |
| 20260901234545 | 68 | 133 | 5.0 | 13.0 | 0.00 | 1.28 | 1.28 | 95 | 1005.0 |
| 20260901233645 | 69 | 93 | 4.0 | 11.0 | 0.00 | 1.28 | 1.28 | 95 | 1005.1 |
| 20260901232745 | 69 | 86 | 8.0 | 18.0 | 0.00 | 1.28 | 1.28 | 96 | 1005.0 |
| 20260901231845 | 69 | 84 | 10.0 | 18.0 | 0.00 | 1.28 | 1.28 | 96 | 1004.7 |
| 20260901230945 | 69 | 74 | 7.0 | 14.0 | 0.00 | 1.28 | 1.28 | 96 | 1004.9 |
| 20260901224245 | 70 | 87 | 6.0 | 13.0 | 0.00 | 1.28 | 1.28 | 96 | 1004.5 |
| 20260901223345 | 70 | 84 | 6.0 | 13.0 | 0.00 | 1.28 | 1.28 | 96 | 1004.5 |
| 20260901222445 | 70 | 80 | 5.0 | 13.0 | 0.00 | 1.28 | 1.28 | 96 | 1004.5 |
| 20260901221545 | 70 | 90 | 6.0 | 14.0 | 0.00 | 1.28 | 1.28 | 96 | 1004.5 |
| 20260901215745 | 71 | 90 | 7.0 | 14.0 | 0.00 | 1.28 | 1.28 | 96 | 1004.4 |
| 20260901214845 | 71 | 82 | 6.0 | 15.0 | 0.00 | 1.28 | 1.28 | 96 | 1004.4 |
| 20260901213945 | 71 | 90 | 5.0 | 12.0 | 0.00 | 1.28 | 1.28 | 95 | 1004.4 |
| 20260901213045 | 71 | 253 | 5.0 | 14.0 | 0.00 | 1.28 | 1.28 | 95 | 1004.6 |
| 20260901212146 | 72 | 16 | 4.0 | 9.0 | 0.00 | 1.28 | 1.28 | 95 | 1004.5 |
| 20260901211246 | 72 | 69 | 4.0 | 9.0 | 0.00 | 1.28 | 1.28 | 95 | 1004.7 |
| 20260901210345 | 72 | 81 | 4.0 | 11.0 | 0.00 | 1.28 | 1.28 | 94 | 1004.6 |
| 20260901205445 | 73 | 57 | 6.0 | 12.0 | 0.00 | 1.28 | 1.28 | 94 | 1004.5 |
| 20260901204545 | 73 | 42 | 5.0 | 10.0 | 0.00 | 1.28 | 1.28 | 95 | 1004.4 |
| 20260901203645 | 73 | 39 | 8.0 | 12.0 | 0.00 | 1.28 | 1.28 | 95 | 1004.3 |
| 20260901202745 | 73 | 46 | 8.0 | 13.0 | 0.00 | 1.28 | 1.28 | 95 | 1004.3 |
| 20260901200945 | 75 | 38 | 5.0 | 11.0 | 0.00 | 1.28 | 1.28 | 92 | 1004.2 |
| 20260901200045 | 76 | 187 | 1.0 | 3.0 | 0.00 | 1.28 | 1.28 | 88 | 1004.2 |
| 20260901195145 | 76 | 164 | 2.0 | 3.0 | 0.00 | 1.28 | 1.28 | 89 | 1004.2 |
| 20260901193345 | 76 | 178 | 2.0 | 5.0 | 0.00 | 1.28 | 1.28 | 89 | 1004.2 |
| 20260901192445 | 76 | 183 | 3.0 | 6.0 | 0.00 | 1.28 | 1.28 | 90 | 1004.2 |
| 20260901191545 | 76 | 177 | 4.0 | 6.0 | 0.00 | 1.28 | 1.28 | 90 | 1004.1 |
| 20260901190645 | 76 | 171 | 3.0 | 7.0 | 0.00 | 1.28 | 1.28 | 89 | 1004.1 |
| 20260901185745 | 76 | 165 | 4.0 | 8.0 | 0.00 | 1.28 | 1.28 | 89 | 1004.2 |
| 20260901184845 | 76 | 176 | 2.0 | 4.0 | 0.00 | 1.28 | 1.28 | 90 | 1004.1 |
| 20260901183945 | 75 | 176 | 3.0 | 7.0 | 0.00 | 1.28 | 1.28 | 93 | 1004.1 |
| 20260901183045 | 74 | 168 | 5.0 | 9.0 | 0.00 | 1.28 | 1.28 | 93 | 1004.3 |
| 20260901182145 | 73 | 165 | 6.0 | 11.0 | 0.00 | 1.28 | 1.28 | 94 | 1004.1 |
| 20260901181245 | 73 | 170 | 5.0 | 10.0 | 0.00 | 1.28 | 1.28 | 96 | 1004.2 |
| 20260901180345 | 72 | 164 | 6.0 | 10.0 | 0.00 | 1.28 | 1.28 | 97 | 1004.3 |
| 20260901175445 | 71 | 164 | 7.0 | 11.0 | 0.01 | 1.28 | 1.28 | 97 | 1004.1 |
| 20260901174545 | 71 | 164 | 7.0 | 12.0 | 0.01 | 1.28 | 1.28 | 97 | 1004.2 |
| 20260901173645 | 71 | 165 | 7.0 | 13.0 | 0.01 | 1.28 | 1.28 | 97 | 1004.4 |
| 20260901172745 | 71 | 169 | 4.0 | 10.0 | 0.02 | 1.28 | 1.28 | 98 | 1004.4 |
| 20260901171845 | 71 | 164 | 7.0 | 12.0 | 0.04 | 1.28 | 1.28 | 98 | 1004.3 |
| 20260901170945 | 71 | 164 | 7.0 | 13.0 | 0.05 | 1.28 | 1.28 | 98 | 1004.3 |
| 20260901170045 | 70 | 167 | 8.0 | 13.0 | 0.06 | 1.27 | 1.27 | 98 | 1004.4 |
| 20260901164245 | 70 | 166 | 6.0 | 10.0 | 0.07 | 1.27 | 1.27 | 98 | 1005.0 |
| 20260901163345 | 70 | 167 | 5.0 | 9.0 | 0.07 | 1.27 | 1.27 | 98 | 1005.3 |
| 20260901162445 | 70 | 166 | 6.0 | 10.0 | 0.06 | 1.26 | 1.26 | 98 | 1005.2 |
| 20260901161545 | 70 | 169 | 6.0 | 11.0 | 0.04 | 1.23 | 1.23 | 98 | 1005.3 |
| 20260901160645 | 69 | 179 | 5.0 | 10.0 | 0.03 | 1.22 | 1.22 | 98 | 1005.5 |
| 20260901155745 | 69 | 164 | 6.0 | 10.0 | 0.03 | 1.21 | 1.21 | 98 | 1005.6 |
| 20260901154845 | 69 | 170 | 5.0 | 9.0 | 0.05 | 1.20 | 1.20 | 98 | 1005.6 |
| 20260901153945 | 69 | 164 | 7.0 | 12.0 | 0.07 | 1.20 | 1.20 | 98 | 1005.4 |
| 20260901153045 | 69 | 167 | 8.0 | 13.0 | 0.08 | 1.20 | 1.20 | 97 | 1005.3 |
| 20260901152145 | 69 | 167 | 8.0 | 12.0 | 0.08 | 1.20 | 1.20 | 97 | 1005.4 |
| 20260901151245 | 69 | 164 | 8.0 | 12.0 | 0.07 | 1.19 | 1.19 | 97 | 1005.4 |
| 20260901150345 | 69 | 163 | 8.0 | 12.0 | 0.07 | 1.19 | 1.19 | 97 | 1005.5 |
| 20260901144545 | 69 | 153 | 3.0 | 7.0 | 0.04 | 1.14 | 1.15 | 97 | 1005.9 |
| 20260901143645 | 69 | 158 | 1.0 | 6.0 | 0.03 | 1.13 | 1.13 | 97 | 1005.9 |
| 20260901142745 | 69 | 133 | 2.0 | 7.0 | 0.02 | 1.12 | 1.12 | 97 | 1005.9 |
| 20260901141845 | 69 | 146 | 0.0 | 4.0 | 0.02 | 1.12 | 1.12 | 96 | 1006.1 |
| 20260901140945 | 69 | 191 | 2.0 | 8.0 | 0.02 | 1.12 | 1.12 | 96 | 1006.0 |
| 20260901140045 | 69 | 170 | 2.0 | 7.0 | 0.02 | 1.12 | 1.12 | 96 | 1005.9 |
| 20260901135145 | 69 | 172 | 2.0 | 7.0 | 0.01 | 1.11 | 1.12 | 97 | 1005.8 |
| 20260901134245 | 69 | 165 | 6.0 | 9.0 | 0.00 | 1.10 | 1.10 | 96 | 1005.9 |
| 20260901132445 | 69 | 162 | 6.0 | 10.0 | 0.00 | 1.10 | 1.10 | 97 | 1005.5 |
| 20260901130645 | 69 | 167 | 6.0 | 10.0 | 0.01 | 1.10 | 1.10 | 97 | 1005.7 |
| 20260901125745 | 69 | 164 | 7.0 | 10.0 | 0.01 | 1.10 | 1.10 | 97 | 1005.7 |
| 20260901124845 | 69 | 166 | 7.0 | 10.0 | 0.01 | 1.10 | 1.10 | 97 | 1005.7 |
| 20260901123945 | 68 | 165 | 7.0 | 11.0 | 0.01 | 1.10 | 1.10 | 97 | 1005.8 |
| 20260901123045 | 68 | 174 | 4.0 | 8.0 | 0.01 | 1.10 | 1.10 | 97 | 1006.0 |
| 20260901122145 | 68 | 169 | 6.0 | 9.0 | 0.01 | 1.10 | 1.10 | 97 | 1005.9 |
| 20260901120345 | 68 | 169 | 7.0 | 11.0 | 0.00 | 1.09 | 1.09 | 97 | 1005.8 |
| 20260901115445 | 68 | 165 | 8.0 | 11.0 | 0.00 | 1.09 | 1.09 | 97 | 1005.7 |
| 20260901114545 | 68 | 169 | 6.0 | 10.0 | 0.00 | 1.09 | 1.09 | 97 | 1005.8 |
| 20260901113645 | 68 | 165 | 7.0 | 11.0 | 0.00 | 1.09 | 1.09 | 97 | 1005.9 |
| 20260901112745 | 67 | 165 | 6.0 | 10.0 | 0.00 | 1.09 | 1.09 | 97 | 1005.8 |
| 20260901111845 | 67 | 167 | 6.0 | 10.0 | 0.00 | 1.09 | 1.09 | 97 | 1005.8 |
| 20260901110945 | 67 | 166 | 7.0 | 10.0 | 0.00 | 1.09 | 1.09 | 97 | 1005.8 |
| 20260901110045 | 67 | 164 | 9.0 | 11.0 | 0.00 | 1.09 | 1.09 | 97 | 1005.7 |
| 20260901104245 | 67 | 164 | 7.0 | 11.0 | 0.00 | 1.09 | 1.09 | 97 | 1005.6 |
| 20260901103345 | 67 | 164 | 8.0 | 11.0 | 0.00 | 1.09 | 1.09 | 97 | 1005.5 |
| 20260901102445 | 67 | 164 | 6.0 | 11.0 | 0.00 | 1.09 | 1.09 | 97 | 1005.6 |
| 20260901100645 | 67 | 148 | 3.0 | 6.0 | 0.00 | 1.09 | 1.09 | 97 | 1005.8 |
| 20260901095745 | 67 | 156 | 3.0 | 6.0 | 0.01 | 1.09 | 1.09 | 97 | 1005.6 |
| 20260901094845 | 67 | 154 | 3.0 | 7.0 | 0.01 | 1.09 | 1.09 | 97 | 1005.6 |
| 20260901093945 | 67 | 171 | 2.0 | 7.0 | 0.01 | 1.09 | 1.09 | 97 | 1005.7 |
| 20260901092145 | 67 | 157 | 1.0 | 6.0 | 0.01 | 1.09 | 1.09 | 97 | 1005.8 |
| 20260901091245 | 67 | 156 | 3.0 | 7.0 | 0.01 | 1.09 | 1.09 | 97 | 1005.8 |
| 20260901090345 | 67 | 163 | 4.0 | 7.0 | 0.02 | 1.08 | 1.08 | 97 | 1005.9 |
| 20260901082745 | 67 | 170 | 4.0 | 7.0 | 0.04 | 1.08 | 1.08 | 97 | 1006.2 |
| 20260901081845 | 67 | 176 | 2.0 | 6.0 | 0.05 | 1.08 | 1.08 | 97 | 1006.3 |
| 20260901080945 | 67 | 181 | 3.0 | 6.0 | 0.10 | 1.08 | 1.08 | 97 | 1006.4 |
| 20260901080045 | 67 | 175 | 4.0 | 8.0 | 0.22 | 1.06 | 1.06 | 97 | 1006.2 |
| 20260901074245 | 67 | 184 | 4.0 | 7.0 | 0.40 | 1.06 | 1.06 | 97 | 1006.5 |
| 20260901073345 | 67 | 167 | 3.0 | 9.0 | 0.47 | 1.05 | 1.06 | 97 | 1006.4 |
| 20260901072445 | 67 | 167 | 3.0 | 8.0 | 0.51 | 1.03 | 1.03 | 96 | 1006.8 |
| 20260901071546 | 67 | 165 | 4.0 | 7.0 | 0.52 | 1.00 | 1.01 | 96 | 1006.3 |
| 20260901070645 | 68 | 173 | 2.0 | 5.0 | 0.57 | 0.94 | 0.95 | 96 | 1006.4 |
| 20260901065745 | 68 | 161 | 3.0 | 7.0 | 0.49 | 0.80 | 0.80 | 96 | 1006.6 |
| 20260901064845 | 68 | 181 | 2.0 | 7.0 | 0.47 | 0.72 | 0.73 | 96 | 1006.5 |
| 20260901063945 | 68 | 155 | 1.0 | 6.0 | 0.44 | 0.62 | 0.63 | 96 | 1006.4 |
| 20260901063045 | 67 | 160 | 6.0 | 9.0 | 0.43 | 0.56 | 0.57 | 96 | 1006.5 |
| 20260901062145 | 68 | 165 | 4.0 | 8.0 | 0.44 | 0.51 | 0.51 | 96 | 1006.6 |
| 20260901061245 | 68 | 169 | 5.0 | 9.0 | 0.40 | 0.44 | 0.44 | 96 | 1006.7 |
| 20260901060345 | 68 | 186 | 3.0 | 7.0 | 0.33 | 0.34 | 0.34 | 95 | 1006.9 |
| 20260901055445 | 68 | 223 | 3.0 | 6.0 | 0.28 | 0.28 | 0.29 | 95 | 1007.1 |
| 20260901054545 | 69 | 223 | 3.0 | 6.0 | 0.22 | 0.22 | 0.22 | 95 | 1007.2 |
| 20260901053645 | 69 | 175 | 3.0 | 6.0 | 0.15 | 0.15 | 0.16 | 94 | 1007.3 |
| 20260901052745 | 69 | 166 | 5.0 | 7.0 | 0.11 | 0.11 | 0.11 | 94 | 1007.2 |
| 20260901050945 | 69 | 171 | 5.0 | 8.0 | 0.02 | 0.02 | 0.03 | 92 | 1007.4 |
| 20260901050045 | 70 | 163 | 7.0 | 9.0 | 0.00 | 0.00 | 0.00 | 92 | 1007.3 |
| 20260901045145 | 70 | 162 | 7.0 | 10.0 | 0.00 | 0.00 | 0.00 | 91 | 1007.1 |
| 20260901044245 | 70 | 162 | 7.0 | 8.0 | 0.00 | 0.00 | 0.00 | 91 | 1007.2 |
| 20260901043345 | 70 | 162 | 6.0 | 7.0 | 0.00 | 0.00 | 0.00 | 91 | 1007.1 |
| 20260901042445 | 70 | 168 | 5.0 | 7.0 | 0.00 | 0.00 | 0.00 | 91 | 1007.2 |
| 20260901041545 | 70 | 173 | 4.0 | 8.0 | 0.00 | 0.00 | 0.00 | 91 | 1007.2 |
| 20260901040645 | 70 | 168 | 5.0 | 9.0 | 0.00 | 0.00 | 0.00 | 91 | 1007.3 |
| 20260901035745 | 70 | 175 | 5.0 | 8.0 | 0.00 | 0.00 | 0.00 | 91 | 1007.3 |
| 20260901034845 | 70 | 169 | 5.0 | 8.0 | 0.00 | 0.00 | 0.00 | 91 | 1007.4 |
| 20260901033945 | 70 | 169 | 4.0 | 8.0 | 0.00 | 0.00 | 0.00 | 90 | 1007.6 |
| 20260901033045 | 70 | 179 | 4.0 | 9.0 | 0.00 | 0.00 | 0.00 | 90 | 1007.7 |
| 20260901032145 | 70 | 184 | 4.0 | 9.0 | 0.00 | 0.00 | 0.00 | 90 | 1007.7 |
| 20260901031245 | 70 | 207 | 3.0 | 7.0 | 0.00 | 0.00 | 0.00 | 90 | 1007.8 |
| 20260901030345 | 70 | 193 | 4.0 | 8.0 | 0.00 | 0.00 | 0.00 | 89 | 1007.8 |
| 20260901025445 | 70 | 183 | 4.0 | 7.0 | 0.00 | 0.00 | 0.00 | 89 | 1007.8 |
| 20260901024545 | 69 | 172 | 5.0 | 9.0 | 0.00 | 0.00 | 0.00 | 89 | 1007.9 |
| 20260901023645 | 69 | 174 | 5.0 | 9.0 | 0.00 | 0.00 | 0.00 | 89 | 1007.9 |
| 20260901022745 | 69 | 168 | 6.0 | 9.0 | 0.00 | 0.00 | 0.00 | 89 | 1007.9 |
| 20260901020045 | 69 | 163 | 8.0 | 11.0 | 0.00 | 0.01 | 0.00 | 88 | 1008.0 |
| 20260901014245 | 69 | 160 | 7.0 | 10.0 | 0.00 | 0.01 | 0.00 | 87 | 1008.0 |
| 20260901013345 | 69 | 163 | 7.0 | 10.0 | 0.00 | 0.01 | 0.00 | 86 | 1008.1 |
| 20260901012445 | 69 | 163 | 6.0 | 9.0 | 0.00 | 0.02 | 0.00 | 86 | 1008.1 |
| 20260901011545 | 69 | 163 | 6.0 | 9.0 | 0.00 | 0.02 | 0.00 | 86 | 1008.1 |
| 20260901010645 | 69 | 162 | 7.0 | 10.0 | 0.00 | 0.02 | 0.00 | 85 | 1008.1 |
| 20260901005745 | 69 | 165 | 7.0 | 9.0 | 0.00 | 0.02 | 0.00 | 85 | 1008.1 |